Regional Weather Roundup
Issued by NWS

Current Version | Previous Version | Text Only | Print | Product List | Glossary Off
Versions: 1 2 3 4 5 6 7 8 9 10 11 12 13 14 15 16 17 18 19 20 21 22 23 24 25 26 27 28 29 30 31 32 33 34 35 36 37 38 39 40 41 42 43 44 45 46 47 48 49 50

000
ASUS43 KLMK 250502
RWRKY
KENTUCKY REGIONAL WEATHER ROUNDUP
NATIONAL WEATHER SERVICE LOUISVILLE KY
100 AM EDT SAT JUN 25 2016

NOTE "FAIR" INDICATES FEW OR NO CLOUDS BELOW 12,000 FEET
WITH NO SIGNIFICANT WEATHER AND/OR OBSTRUCTIONS TO VISIBILITY.

KYZ001>023-026-027-061>063-070>075-250600-
WESTERN AND SOUTH CENTRAL KENTUCKY

CITY           SKY/WX    TMP DP  RH WIND       PRES   REMARKS
PADUCAH        CLEAR     74  70  87 CALM      30.03R
HENDERSON      CLEAR     72  66  83 CALM      30.04S
OWENSBORO      CLEAR     76  69  79 CALM      30.06R
HOPKINSVILLE   NOT AVBL
BOWLING GREEN  CLEAR     71  68  90 CALM      30.06R
GLASGOW        NOT AVBL
$$

KYZ024-025-028>034-038-045-046-053-250600-
NORTH CENTRAL KENTUCKY

CITY           SKY/WX    TMP DP  RH WIND       PRES   REMARKS
LOUISVILLE/SDF PTCLDY    78  65  63 CALM      30.06R
LOUISVILLE/LOU CLEAR     75  67  76 CALM      30.07R
FORT KNOX      CLEAR     72  67  85 N1        30.06R
$$

KYZ035>037-039>044-047>052-055>060-089>105-250600-
NORTHEAST KENTUCKY

CITY           SKY/WX    TMP DP  RH WIND       PRES   REMARKS
LEXINGTON      PTCLDY    70  66  87 CALM      30.09R
COVINGTON      PTCLDY    75  62  64 NE5       30.09R
FRANKFORT      PTCLDY    69  66  90 CALM      30.07R
$$

KYZ054-064>069-076>088-106>120-250600-
SOUTHEAST KENTUCKY

CITY           SKY/WX    TMP DP  RH WIND       PRES   REMARKS
JACKSON        CLEAR     72  65  78 CALM      30.10S
LONDON         CLEAR     70  67  90 CALM      30.09R
SOMERSET       PTCLDY    70  70 100 CALM      30.09S
MIDDLESBORO    CLEAR     70  69  96 CALM      30.10S
MONTICELLO     CLEAR    N/A N/A N/A W9        30.10R FOG
$$





USA.gov is the U.S. government's official web portal to all federal, state and local government web resources and services.